Location: Marcé
(47.5801°N, 0.3280°W)
Time: 19:02:00
(UTC+01:00)

A-11 Canister half - Visible Passes

Search period start: 06 December 2021 00:00
Search period end: 16 December 2021 00:00
Orbit: 1524 x 1685 km, 47.3° (Epoch: 05 December)

Date Brightness Start Highest point End Pass type
(mag) Time Alt. Az. Time Alt. Az. Time Alt. Az.
06 Dec 9.8 03:41:08 45° E 03:41:08 45° E 03:47:19 10° E visible
06 Dec 9.0 05:39:26 51° W 05:42:35 86° S 05:52:28 10° ESE visible
06 Dec 9.5 07:37:43 10° WNW 07:47:19 55° SSW 07:56:38 10° SE visible
07 Dec 10.2 03:20:41 35° E 03:20:41 35° E 03:25:38 10° E visible
07 Dec 8.9 05:18:59 65° W 05:20:52 87° S 05:30:48 10° E visible
07 Dec 9.4 07:17:17 15° WNW 07:25:40 56° SSW 07:35:03 10° SE visible
08 Dec 10.5 03:00:15 27° E 03:00:15 27° E 03:03:56 10° E visible
08 Dec 8.9 04:58:33 82° W 04:59:09 88° S 05:09:06 10° E visible
08 Dec 9.3 06:56:51 20° W 07:04:00 58° SSW 07:13:29 10° SE visible
09 Dec 10.8 02:39:50 20° E 02:39:50 20° E 02:42:15 10° ENE visible
09 Dec 9.0 04:38:08 80° ESE 04:38:08 80° ESE 04:47:25 10° E visible
09 Dec 9.3 06:36:26 27° W 06:42:20 60° SSW 06:51:53 10° SE visible
10 Dec 11.1 02:19:25 14° ENE 02:19:25 14° ENE 02:20:33 10° ENE visible
10 Dec 9.3 04:17:43 64° E 04:17:43 64° E 04:25:45 10° E visible
10 Dec 9.2 06:16:02 35° W 06:20:41 62° SSW 06:30:17 10° SE visible
11 Dec 9.7 03:57:21 50° E 03:57:21 50° E 04:04:03 10° E visible
11 Dec 9.1 05:55:39 44° W 05:59:00 64° SSW 06:08:39 10° SE visible
11 Dec 10.2 07:54:57 10° W 08:02:43 27° SW 08:10:18 10° S visible
12 Dec 10.0 03:36:59 38° E 03:36:59 38° E 03:42:21 10° E visible
12 Dec 9.1 05:35:17 55° WSW 05:37:19 66° SSW 05:47:03 10° SE visible
12 Dec 10.1 07:33:36 11° W 07:41:07 28° SW 07:48:54 10° S visible
13 Dec 10.4 03:16:40 29° E 03:16:40 29° E 03:20:40 10° E visible
13 Dec 9.0 05:14:58 66° SW 05:15:39 67° SSW 05:25:25 10° SE visible
13 Dec 10.0 07:13:17 16° W 07:19:30 29° SW 07:27:29 10° S visible
14 Dec 10.8 02:56:23 21° E 02:56:23 21° E 02:58:58 10° E visible
14 Dec 9.1 04:54:41 67° S 04:54:41 67° S 05:03:47 10° SE visible
14 Dec 9.9 06:53:00 21° W 06:57:54 31° SW 07:06:03 10° S visible
15 Dec 11.1 02:36:07 14° E 02:36:07 14° E 02:37:16 10° E visible
15 Dec 9.4 04:34:26 57° SSE 04:34:26 57° SSE 04:42:09 10° ESE visible
15 Dec 9.8 06:32:45 26° WSW 06:36:17 33° SW 06:44:36 10° SSE visible
